User: anonymous   Login
Location: Albany
(35.0000°S, 118.0000°E)
Time: 06:15:08
(UTC-04:00)
Language:

Atlas Centaur 2 - Orbit

View from above orbital plane
View from above orbital plane
View from above satellite
View from above satellite

Ground track
Ground track

The orbit data is extracted from the following two-line orbital elements,

1 00694U 63047A   15247.20134779  .00000887  00000-0  10486-3 0  9996
2 00694  30.3556 149.9430 0591390 138.1097 354.1371 14.01230297591164
Epoch (UTC): 04 September 2015 04:49:56
Eccentricity: 0.0591390
inclination: 30.3556°
perigee height: 460 km
apogee height: 1319 km
right ascension of ascending node: 149.9430°
argument of perigee: 138.1097°
revolutions per day: 14.01230297
mean anomaly at epoch: 354.1371°
orbit number at epoch: 59116

The dashed part of the orbit path shows where the satellite is in the earth's shadow,  

DLR